Simultaneous Nadir Overpasses (SNOs) Predictions

Prediction of SNOs between AURA and LANDSAT-8 Satellite Orbit:

Table of predicted SNOs for the next 14.0 days since TLE Epoch: 3/22/2025
Index Date (AURA) Time (AURA) Lat,Lon (AURA) SZA (AURA ) Date (LANDSAT-8) Time (LANDSAT-8) Lat,Lon (LANDSAT-8) SZA (LANDSAT-8 ) Distance(km) Time Diff (sec)
1 03/22/2025 04:46:02 73.49, 110.21 72.68 03/22/2025 04:47:14 73.50, 110.10 72.68 3.36 72
2 03/22/2025 05:35:27 -73.78, -82.75 107.05 03/22/2025 05:36:37 -73.74, -81.74 107.09 31.94 70
3 03/22/2025 06:24:52 73.97, 84.48 73.14 03/22/2025 06:25:59 73.92, 86.30 73.08 56.29 67
4 03/22/2025 07:14:17 -74.26,-108.51 106.59 03/22/2025 07:15:21 -74.21,-105.40 106.64 94.23 64



Historial Predications of SNOs between AURA and LANDSAT-8
